Location: Ostrava
(49.8330°N, 18.2830°E)
Time: 02:40:22
(UTC+02:00)

Envisat - Pass Details

Date: 18 January 2022
Orbit: 764 x 765 km, 98.2° (Epoch: 22 May)

Event Time Altitude Azimuth Distance (km) Brightness Sun altitude
Rises 03:34:19 0° 25° (NNE) 3,242 6.7 -38.4°
Reaches altitude 10° 03:37:13 10° 42° (NE) 2,310 6.0 -37.9°
Maximum altitude 03:40:57 20° 90° (E) 1,702 5.3 -37.3°
Drops below altitude 10° 03:44:40 10° 137° (SE) 2,297 5.7 -36.8°
Sets 03:47:33 0° 154° (SSE) 3,218 6.4 -36.3°
